User: anonymous
Location: Hepcat Sky Observatory
(29.9800°N, 95.6500°W)
Time: 13:09:37
(UTC-05:00)
Language:

Cosmos 1602 Rocket - Orbit

View from above orbital plane
View from above orbital plane
View from above satellite
View from above satellite

Ground track
Ground track

The orbit data is extracted from the following two-line orbital elements,

1 15332U 84105B   14263.78204262  .00000414  00000-0  48015-4 0  7617
2 15332 082.5362 042.9362 0022629 071.0254 046.0292 14.82784592618309
Epoch (UTC): 20 September 2014 18:46:08
Eccentricity: 0.0022629
inclination: 82.5362°
perigee height: 605 km
apogee height: 636 km
right ascension of ascending node: 42.9362°
argument of perigee: 71.0254°
revolutions per day: 14.82784592
mean anomaly at epoch: 46.0292°
orbit number at epoch: 61830

The dashed part of the orbit path shows where the satellite is in the earth's shadow,  

DLR